W8APS Weather Reports


time (UTC)temp
C
wind
direction
speed
KPH
gust
KPH
rain 1hr
cm
rain 24hr
cm
rain mn
cm
humidity
%
barometer
mb
20260503180031 15 204 11.3 32.2 0.00 0.00 0.00 42 1010.2
20260503175515 15 231 8.0 20.9 0.00 0.00 0.00 43 1010.2
20260503175014 15 238 9.7 35.4 0.00 0.00 0.00 41 1010.3
20260503174531 15 225 11.3 35.4 0.00 0.00 0.00 42 1010.4
20260503174020 14 233 14.5 32.2 0.00 0.00 0.00 42 1010.6
20260503173516 14 247 17.7 30.6 0.00 0.00 0.00 43 1010.8
20260503173036 13 258 16.1 38.6 0.00 0.00 0.00 42 1010.9
20260503172515 13 190 16.1 38.6 0.00 0.00 0.00 42 1010.9
20260503172015 13 214 17.7 35.4 0.00 0.00 0.00 41 1011.0
20260503171535 13 223 17.7 33.8 0.00 0.00 0.00 41 1011.0
20260503171014 13 208 17.7 33.8 0.00 0.00 0.00 42 1011.0
20260503170516 13 214 11.3 29.0 0.00 0.00 0.00 41 1011.0
20260503150516 13 259 14.5 33.8 0.00 0.00 0.00 44 1012.1
20260503131015 10 215 16.1 25.7 0.00 0.00 0.00 48 1012.7
20260503130516 10 240 9.7 25.7 0.00 0.00 0.00 50 1012.7
20260503110515 5 159 4.8 12.9 0.00 0.00 0.00 59 1012.7
20260503081546 2 0 0.0 1.6 0.00 0.00 0.00 66 1013.9
20260503081013 2 0 0.0 3.2 0.00 0.00 0.00 65 1013.9
20260503080513 2 0 0.0 3.2 0.00 0.00 0.00 64 1013.9
20260503072516 3 225 0.0 3.2 0.00 0.00 0.00 62 1014.0
20260503072014 2 221 1.6 3.2 0.00 0.00 0.00 62 1014.0
20260503071539 2 227 0.0 3.2 0.00 0.00 0.00 63 1014.0
20260503071018 2 226 0.0 3.2 0.00 0.00 0.00 63 1014.0
20260503070513 2 225 0.0 1.6 0.00 0.00 0.00 63 1014.1
20260503055018 3 224 1.6 3.2 0.00 0.00 0.00 64 1014.6
20260503054536 3 229 0.0 4.8 0.00 0.00 0.00 64 1014.7
20260503054014 3 232 1.6 8.0 0.00 0.00 0.00 64 1014.7
20260503053514 3 224 1.6 8.0 0.00 0.00 0.00 64 1014.7
20260503053030 3 236 1.6 8.0 0.00 0.00 0.00 65 1014.7
20260503052520 3 212 1.6 4.8 0.00 0.00 0.00 65 1014.7
20260503052014 3 223 1.6 4.8 0.00 0.00 0.00 65 1014.7
20260503051529 3 233 0.0 4.8 0.00 0.00 0.00 67 1014.8
20260503051013 3 235 1.6 4.8 0.00 0.00 0.00 66 1014.8
20260503050513 3 230 1.6 3.2 0.00 0.00 0.00 67 1014.9
20260503050029 3 226 1.6 3.2 0.00 0.00 0.00 68 1014.8
20260503045516 3 212 1.6 3.2 0.00 0.00 0.00 70 1014.9
20260503045018 3 209 0.0 3.2 0.00 0.00 0.00 70 1014.9
20260503044540 3 0 0.0 3.2 0.00 0.00 0.00 70 1014.9
20260503044016 3 0 0.0 3.2 0.00 0.00 0.00 70 1015.0
20260503043516 3 0 0.0 1.6 0.00 0.00 0.00 71 1015.0
20260503043032 3 0 0.0 1.6 0.00 0.00 0.00 70 1015.0
20260503042514 3 0 0.0 3.2 0.00 0.00 0.00 68 1015.0
20260503042016 3 0 0.0 3.2 0.00 0.00 0.00 66 1015.0
20260503041530 3 226 0.0 3.2 0.00 0.00 0.00 67 1014.9
20260503041015 3 210 0.0 1.6 0.00 0.00 0.00 67 1015.1
20260503040514 3 184 0.0 1.6 0.00 0.00 0.00 66 1015.0
20260503040030 3 0 0.0 1.6 0.00 0.00 0.00 68 1015.1
20260503035515 3 213 0.0 1.6 0.00 0.00 0.00 68 1015.0
20260503035018 3 0 0.0 1.6 0.00 0.00 0.00 67 1015.0
20260503034531 3 0 0.0 1.6 0.00 0.00 0.00 66 1015.1
20260503034014 4 188 0.0 3.2 0.00 0.00 0.00 65 1015.1
20260503033517 4 182 0.0 3.2 0.00 0.00 0.00 66 1015.1
20260503033031 4 203 0.0 3.2 0.00 0.00 0.00 65 1015.1
20260503032516 4 188 0.0 1.6 0.00 0.00 0.00 65 1015.2
20260503032014 4 203 0.0 3.2 0.00 0.00 0.00 65 1015.2
20260503031530 4 0 0.0 3.2 0.00 0.00 0.00 65 1015.3
20260503031014 4 193 0.0 4.8 0.00 0.00 0.00 65 1015.3
20260503030522 4 0 0.0 4.8 0.00 0.00 0.00 64 1015.3
20260503030033 4 200 0.0 1.6 0.00 0.00 0.00 64 1015.3
20260503025518 4 0 0.0 3.2 0.00 0.00 0.00 65 1015.5
20260503025015 4 0 0.0 3.2 0.00 0.00 0.00 64 1015.4
20260503024529 4 0 0.0 1.6 0.00 0.00 0.00 64 1015.5
20260503024015 4 0 0.0 1.6 0.00 0.00 0.00 63 1015.5
20260503023516 4 187 0.0 1.6 0.00 0.00 0.00 62 1015.5
20260503023038 4 188 0.0 1.6 0.00 0.00 0.00 62 1015.5
20260503022515 4 0 0.0 3.2 0.00 0.00 0.00 62 1015.6
20260503022020 4 173 0.0 3.2 0.00 0.00 0.00 62 1015.6
20260503021530 4 200 0.0 3.2 0.00 0.00 0.00 61 1015.7
20260503021017 4 191 0.0 1.6 0.00 0.00 0.00 62 1015.6
20260503020515 5 0 0.0 1.6 0.00 0.00 0.00 63 1015.6
20260503020030 5 181 0.0 1.6 0.00 0.00 0.00 62 1015.6
20260503015515 5 181 0.0 1.6 0.00 0.00 0.00 62 1015.6
20260503015013 5 0 0.0 1.6 0.00 0.00 0.00 63 1015.6
20260503014535 5 198 0.0 1.6 0.00 0.00 0.00 62 1015.6
20260503014014 5 198 0.0 1.6 0.00 0.00 0.00 61 1015.5
20260503013518 5 198 0.0 0.0 0.00 0.00 0.00 59 1015.4
20260503013036 5 0 0.0 1.6 0.00 0.00 0.00 59 1015.5
20260503012514 5 0 0.0 1.6 0.00 0.00 0.00 57 1015.4
20260503012020 5 0 0.0 1.6 0.00 0.00 0.00 57 1015.4
20260503011531 5 0 0.0 1.6 0.00 0.00 0.00 58 1015.4
20260503011016 5 0 0.0 1.6 0.00 0.00 0.00 58 1015.5
20260503010515 6 0 0.0 1.6 0.00 0.00 0.00 57 1015.5
20260503010033 6 177 0.0 1.6 0.00 0.00 0.00 53 1015.4
20260503005516 6 0 0.0 0.0 0.00 0.00 0.00 53 1015.3
20260503005014 6 0 0.0 0.0 0.00 0.00 0.00 54 1015.3
20260503004530 7 0 0.0 0.0 0.00 0.00 0.00 48 1015.3
20260503004015 8 0 0.0 1.6 0.00 0.00 0.00 50 1015.3
20260503003515 8 0 0.0 1.6 0.00 0.00 0.00 55 1015.3
20260503003030 8 236 0.0 3.2 0.00 0.00 0.00 59 1015.3
20260503002517 8 233 0.0 3.2 0.00 0.00 0.00 54 1015.4
20260503002017 8 219 0.0 3.2 0.00 0.00 0.00 51 1015.4
20260503001534 8 223 0.0 3.2 0.00 0.00 0.00 53 1015.4
20260503001017 8 225 0.0 9.7 0.00 0.00 0.00 50 1015.4
20260503000514 8 240 1.6 9.7 0.00 0.00 0.00 48 1015.3
20260503000045 8 257 1.6 9.7 0.00 0.00 0.00 42 1015.4
20260502235517 8 0 0.0 4.8 0.00 0.00 0.00 41 1015.4
20260502235014 8 0 0.0 1.6 0.00 0.00 0.00 41 1015.4
20260502234532 8 0 0.0 1.6 0.00 0.00 0.00 40 1015.4
20260502234015 8 0 0.0 3.2 0.00 0.00 0.00 41 1015.4
20260502233518 8 0 0.0 3.2 0.00 0.00 0.00 41 1015.5
20260502233032 8 0 0.0 3.2 0.00 0.00 0.00 42 1015.5
20260502232518 8 0 0.0 3.2 0.00 0.00 0.00 41 1015.5
20260502232016 8 0 0.0 6.4 0.00 0.00 0.00 43 1015.4
20260502231532 7 283 1.6 6.4 0.00 0.00 0.00 43 1015.4
20260502231015 7 0 0.0 4.8 0.00 0.00 0.00 43 1015.6
20260502230514 7 275 1.6 4.8 0.00 0.00 0.00 44 1015.6
20260502230031 7 0 0.0 9.7 0.00 0.00 0.00 44 1015.6
20260502225517 7 0 0.0 9.7 0.00 0.00 0.00 44 1015.6
20260502225015 7 274 0.0 6.4 0.00 0.00 0.00 45 1015.7
20260502224534 7 304 0.0 6.4 0.00 0.00 0.00 44 1015.7
20260502224014 7 333 0.0 9.7 0.00 0.00 0.00 45 1015.6
20260502223520 7 255 3.2 11.3 0.00 0.00 0.00 43 1015.7
20260502223032 7 274 3.2 11.3 0.00 0.00 0.00 44 1015.7
20260502222515 7 255 3.2 9.7 0.00 0.00 0.00 44 1015.6
20260502222016 7 0 1.6 11.3 0.00 0.00 0.00 45 1015.7
20260502221534 7 249 3.2 12.9 0.00 0.00 0.00 44 1015.7
20260502221014 7 285 1.6 12.9 0.00 0.00 0.00 45 1015.7
20260502220517 7 309 4.8 14.5 0.00 0.00 0.00 44 1015.7
20260502220030 7 266 6.4 14.5 0.00 0.00 0.00 44 1015.7
20260502215516 7 273 3.2 14.5 0.00 0.00 0.00 44 1015.8
20260502215015 7 301 6.4 14.5 0.00 0.00 0.00 43 1015.8
20260502214531 7 283 3.2 16.1 0.00 0.00 0.00 44 1015.8
20260502214017 7 306 4.8 16.1 0.00 0.00 0.00 43 1015.8
20260502213516 7 293 4.8 11.3 0.00 0.00 0.00 42 1015.9
20260502213031 7 273 0.0 8.0 0.00 0.00 0.00 45 1015.8
20260502212516 7 257 1.6 14.5 0.00 0.00 0.00 45 1015.7
20260502212014 7 250 4.8 14.5 0.00 0.00 0.00 45 1015.8
20260502211530 7 293 3.2 9.7 0.00 0.00 0.00 45 1015.8
20260502211013 7 243 3.2 9.7 0.00 0.00 0.00 45 1015.8
20260502210516 7 269 3.2 12.9 0.00 0.00 0.00 45 1015.8
20260502210031 7 240 3.2 12.9 0.00 0.00 0.00 47 1015.8
20260502205516 7 236 3.2 16.1 0.00 0.00 0.00 50 1015.8
20260502205015 7 205 6.4 16.1 0.00 0.00 0.00 48 1015.8
20260502204532 7 247 1.6 11.3 0.00 0.00 0.00 48 1015.8
20260502204017 7 0 1.6 17.7 0.00 0.00 0.00 48 1015.9
20260502203516 7 303 8.0 17.7 0.00 0.00 0.00 46 1015.9
20260502203031 7 0 0.0 14.5 0.00 0.00 0.00 50 1015.9
20260502202515 7 259 3.2 14.5 0.00 0.00 0.00 46 1016.0
20260502202015 7 284 3.2 14.5 0.00 0.00 0.00 46 1016.0
20260502201535 7 271 4.8 14.5 0.00 0.00 0.00 47 1016.0
20260502201019 7 285 4.8 12.9 0.00 0.00 0.00 46 1016.0
20260502200514 7 263 4.8 17.7 0.00 0.00 0.00 47 1016.1
20260502200033 7 236 4.8 17.7 0.00 0.00 0.00 48 1016.2
20260502195516 7 302 6.4 16.1 0.00 0.00 0.00 47 1016.2
20260502195015 7 267 6.4 14.5 0.00 0.00 0.00 46 1016.3
20260502194530 7 249 3.2 17.7 0.00 0.00 0.00 45 1016.3
20260502194015 7 212 8.0 17.7 0.00 0.00 0.00 47 1016.4
20260502193517 7 335 6.4 22.5 0.00 0.00 0.00 46 1016.4
20260502193032 7 0 3.2 22.5 0.00 0.00 0.00 48 1016.5
20260502192516 7 214 8.0 19.3 0.00 0.00 0.00 49 1016.4
20260502192016 7 287 4.8 14.5 0.00 0.00 0.00 47 1016.6
20260502191538 7 272 3.2 14.5 0.00 0.00 0.00 46 1016.5
20260502191019 7 251 8.0 19.3 0.00 0.00 0.00 45 1016.6
20260502190516 7 223 6.4 19.3 0.00 0.00 0.00 47 1016.7
20260502190035 7 205 3.2 16.1 0.00 0.00 0.00 48 1016.7
20260502185516 7 283 8.0 16.1 0.00 0.00 0.00 47 1016.9
20260502185017 7 268 4.8 17.7 0.00 0.00 0.00 46 1016.8
20260502184531 7 294 3.2 17.7 0.00 0.00 0.00 45 1016.9
20260502184017 7 286 3.2 17.7 0.00 0.00 0.00 47 1016.9
20260502183515 6 0 4.8 17.7 0.00 0.00 0.00 48 1016.9
20260502183031 6 274 4.8 17.7 0.00 0.00 0.00 47 1017.0
20260502182515 6 273 6.4 14.5 0.00 0.00 0.00 47 1017.0
20260502182016 6 269 4.8 16.1 0.00 0.00 0.00 48 1017.0
20260502181532 7 313 6.4 16.1 0.00 0.00 0.00 46 1017.1
20260502181016 6 246 4.8 12.9 0.00 0.00 0.00 47 1017.1
20260502180516 6 258 4.8 14.5 0.00 0.00 0.00 48 1017.2